Location: Omaha
(41.2590°N, 95.9380°W)
Time: 11:26:26
(UTC-06:00)

Vanguard 3 - Pass Details

Date: 03 July 2018
Orbit: 508 x 3264 km, 33.3° (Epoch: 20 November)

Event Time Altitude Azimuth Distance (km) Brightness Sun altitude
Rises 05:17:08 0° 259° (W) 2,861 - -6.7°
Exits shadow 05:18:50 - 248° (WSW) 2,348 8.9 -6.5°
Reaches altitude 10° 05:19:37 10° 241° (WSW) 2,156 8.7 -6.4°
Maximum altitude 05:23:14 20° 193° (SSW) 1,897 8.6 -5.8°
Drops below altitude 10° 05:28:10 10° 149° (SSE) 3,071 10.1 -5.1°
Sets 05:32:39 0° 135° (SE) 4,574 11.1 -4.4°
